When you browse on this site, cookies collect data to enhance your experience and personalize the content and advertising you see.
Visit our Privacy Policy to learn more. By continuing to use the site, you agree to this use of cookies and data.
  • Em Portugal
  • Lista de países
  • Para 7 dias
  • Temperatura da água
  • Mapas de satélite
  • Mapa do tempo
  • Widgets de tempo
  • user-avatar
    Iniciar Sessão

    Previsão horária em Elki

    Hoje, 20 Abril, Sábado

    Tempo Temperatura Precipitação Vento Pressão Humidade
    00:00 +8°C° 0 mm 1 m/s 758 mmHg 53%
    01:00 +6°C° 0 mm 2 m/s 758 mmHg 54%
    02:00 +6°C° 0 mm 2 m/s 758 mmHg 56%
    03:00 +5°C° 0 mm 2 m/s 757 mmHg 57%
    04:00 +5°C° 0 mm 2 m/s 757 mmHg 58%
    05:00 +5°C° 0 mm 2 m/s 757 mmHg 59%
    06:00 +7°C° 0 mm 2 m/s 757 mmHg 57%
    07:00 +8°C° 0 mm 2 m/s 756 mmHg 54%
    08:00 +10°C° 0 mm 2 m/s 756 mmHg 51%
    09:00 +11°C° 0 mm 3 m/s 756 mmHg 47%
    10:00 +13°C° 0 mm 3 m/s 756 mmHg 43%
    11:00 +14°C° 0 mm 3 m/s 756 mmHg 39%
    12:00 +16°C° 0 mm 3 m/s 755 mmHg 37%
    13:00 +16°C° 0 mm 3 m/s 755 mmHg 35%
    14:00 +17°C° 0 mm 3 m/s 755 mmHg 32%
    15:00 +16°C° 0 mm 2 m/s 755 mmHg 34%
    16:00 +16°C° 0 mm 2 m/s 754 mmHg 36%
    17:00 +16°C° 0 mm 1 m/s 754 mmHg 38%
    18:00 +14°C° 0.1 mm 1 m/s 754 mmHg 46%
    19:00 +13°C° 0.1 mm 1 m/s 754 mmHg 54%
    20:00 +11°C° 0.1 mm 1 m/s 754 mmHg 62%
    21:00 +11°C° 0.4 mm 1 m/s 754 mmHg 68%
    22:00 +10°C° 0.4 mm 1 m/s 754 mmHg 73%
    23:00 +10°C° 0.4 mm 1 m/s 754 mmHg 79%

    Amanhã, 21 Abril, Domingo

    Tempo Temperatura Precipitação Vento Pressão Humidade
    00:00 +9°C° 0.1 mm 1 m/s 754 mmHg 80%
    01:00 +9°C° 0.1 mm 1 m/s 753 mmHg 80%
    02:00 +9°C° 0.1 mm 1 m/s 753 mmHg 81%
    03:00 +8°C° 0 mm 1 m/s 753 mmHg 82%
    04:00 +8°C° 0 mm 1 m/s 753 mmHg 83%
    05:00 +8°C° 0 mm 1 m/s 753 mmHg 84%
    06:00 +8°C° 0.2 mm 2 m/s 753 mmHg 82%
    07:00 +9°C° 0.2 mm 2 m/s 753 mmHg 79%
    08:00 +10°C° 0.2 mm 2 m/s 753 mmHg 77%
    09:00 +11°C° 0.7 mm 3 m/s 753 mmHg 69%
    10:00 +12°C° 0.7 mm 5 m/s 753 mmHg 61%
    11:00 +14°C° 0.7 mm 6 m/s 753 mmHg 53%
    12:00 +15°C° 0.1 mm 6 m/s 753 mmHg 48%
    13:00 +15°C° 0.1 mm 6 m/s 753 mmHg 44%
    14:00 +16°C° 0.1 mm 6 m/s 753 mmHg 39%
    15:00 +15°C° 0 mm 6 m/s 753 mmHg 42%
    16:00 +15°C° 0 mm 6 m/s 753 mmHg 44%
    17:00 +14°C° 0 mm 6 m/s 753 mmHg 46%
    18:00 +13°C° 0 mm 6 m/s 754 mmHg 49%
    19:00 +10°C° 0 mm 5 m/s 754 mmHg 52%
    20:00 +10°C° 0 mm 4 m/s 754 mmHg 54%
    21:00 +8°C° 0 mm 4 m/s 755 mmHg 55%
    22:00 +8°C° 0 mm 4 m/s 755 mmHg 57%
    23:00 +7°C° 0 mm 4 m/s 756 mmHg 58%

    Depois de amanhã, 22 Abril, Segunda-feira

    Tempo Temperatura Precipitação Vento Pressão Humidade
    00:00 +7°C° 0 mm 4 m/s 756 mmHg 60%
    01:00 +7°C° 0 mm 3 m/s 756 mmHg 61%
    02:00 +5°C° 0 mm 3 m/s 757 mmHg 63%
    03:00 +5°C° 0 mm 3 m/s 757 mmHg 64%
    04:00 +5°C° 0 mm 3 m/s 757 mmHg 66%
    05:00 +4°C° 0 mm 3 m/s 757 mmHg 68%
    06:00 +7°C° 0 mm 3 m/s 758 mmHg 63%
    07:00 +9°C° 0 mm 3 m/s 758 mmHg 58%
    08:00 +11°C° 0 mm 3 m/s 758 mmHg 53%
    09:00 +12°C° 0 mm 3 m/s 759 mmHg 47%
    10:00 +13°C° 0 mm 4 m/s 759 mmHg 42%
    11:00 +14°C° 0 mm 4 m/s 759 mmHg 37%
    12:00 +14°C° 0 mm 4 m/s 759 mmHg 37%
    13:00 +14°C° 0 mm 4 m/s 759 mmHg 36%
    14:00 +15°C° 0 mm 4 m/s 759 mmHg 36%
    15:00 +14°C° 0 mm 3 m/s 759 mmHg 38%
    16:00 +14°C° 0 mm 3 m/s 758 mmHg 39%
    17:00 +14°C° 0 mm 3 m/s 758 mmHg 41%
    18:00 +13°C° 0 mm 2 m/s 759 mmHg 44%
    19:00 +12°C° 0 mm 2 m/s 759 mmHg 47%
    20:00 +10°C° 0 mm 2 m/s 759 mmHg 50%
    21:00 +10°C° 0 mm 2 m/s 759 mmHg 51%
    22:00 +9°C° 0 mm 2 m/s 759 mmHg 52%
    23:00 +8°C° 0 mm 2 m/s 760 mmHg 53%

    23 Abril, Terça-feira

    Tempo Temperatura Precipitação Vento Pressão Humidade
    00:00 +9°C° 0 mm 1 m/s 760 mmHg 53%
    01:00 +9°C° 0 mm 1 m/s 760 mmHg 52%
    02:00 +9°C° 0 mm 1 m/s 760 mmHg 52%
    03:00 +8°C° 0 mm 2 m/s 760 mmHg 54%
    04:00 +8°C° 0 mm 2 m/s 760 mmHg 56%
    05:00 +7°C° 0 mm 2 m/s 760 mmHg 57%
    06:00 +9°C° 0 mm 2 m/s 761 mmHg 55%
    07:00 +10°C° 0 mm 2 m/s 761 mmHg 53%
    08:00 +13°C° 0 mm 2 m/s 761 mmHg 51%
    09:00 +13°C° 0 mm 3 m/s 761 mmHg 45%
    10:00 +14°C° 0 mm 3 m/s 761 mmHg 39%
    11:00 +15°C° 0 mm 4 m/s 761 mmHg 34%
    12:00 +17°C° 0 mm 4 m/s 760 mmHg 33%
    13:00 +17°C° 0 mm 4 m/s 760 mmHg 33%
    14:00 +18°C° 0 mm 4 m/s 760 mmHg 32%
    15:00 +17°C° 0 mm 4 m/s 760 mmHg 34%
    16:00 +17°C° 0 mm 4 m/s 759 mmHg 35%
    17:00 +17°C° 0 mm 4 m/s 759 mmHg 37%
    18:00 +14°C° 0 mm 3 m/s 759 mmHg 42%
    19:00 +13°C° 0 mm 3 m/s 759 mmHg 47%
    20:00 +12°C° 0 mm 2 m/s 759 mmHg 53%
    21:00 +10°C° 0 mm 2 m/s 760 mmHg 55%
    22:00 +10°C° 0 mm 2 m/s 760 mmHg 58%
    23:00 +9°C° 0 mm 2 m/s 760 mmHg 61%

    24 Abril, Quarta-feira

    Tempo Temperatura Precipitação Vento Pressão Humidade
    00:00 +8°C° 0 mm 2 m/s 760 mmHg 63%
    01:00 +8°C° 0 mm 2 m/s 760 mmHg 65%
    02:00 +7°C° 0 mm 2 m/s 760 mmHg 67%
    03:00 +7°C° 0 mm 2 m/s 760 mmHg 68%
    04:00 +7°C° 0 mm 2 m/s 760 mmHg 69%
    05:00 +5°C° 0 mm 3 m/s 760 mmHg 70%
    06:00 +8°C° 0 mm 3 m/s 760 mmHg 65%
    07:00 +10°C° 0 mm 3 m/s 760 mmHg 60%
    08:00 +12°C° 0 mm 4 m/s 760 mmHg 55%
    09:00 +13°C° 0 mm 4 m/s 760 mmHg 50%
    10:00 +15°C° 0 mm 5 m/s 760 mmHg 45%
    11:00 +16°C° 0 mm 6 m/s 760 mmHg 41%
    12:00 +17°C° 0 mm 6 m/s 759 mmHg 40%
    13:00 +17°C° 0 mm 6 m/s 759 mmHg 39%
    14:00 +19°C° 0 mm 6 m/s 759 mmHg 38%
    15:00 +17°C° 0 mm 5 m/s 758 mmHg 40%
    16:00 +17°C° 0 mm 5 m/s 758 mmHg 41%
    17:00 +17°C° 0 mm 5 m/s 758 mmHg 42%
    18:00 +15°C° 0 mm 4 m/s 758 mmHg 48%
    19:00 +13°C° 0 mm 4 m/s 758 mmHg 53%
    20:00 +12°C° 0 mm 3 m/s 758 mmHg 59%
    21:00 +11°C° 0 mm 3 m/s 758 mmHg 61%
    22:00 +10°C° 0 mm 3 m/s 758 mmHg 62%
    23:00 +10°C° 0 mm 3 m/s 758 mmHg 64%

    25 Abril, Quinta-feira

    Tempo Temperatura Precipitação Vento Pressão Humidade
    00:00 +10°C° 0 mm 3 m/s 758 mmHg 65%
    01:00 +9°C° 0 mm 3 m/s 758 mmHg 66%
    02:00 +9°C° 0 mm 3 m/s 758 mmHg 67%
    03:00 +8°C° 0 mm 3 m/s 758 mmHg 68%
    04:00 +8°C° 0 mm 3 m/s 758 mmHg 69%
    05:00 +8°C° 0 mm 3 m/s 758 mmHg 69%
    06:00 +10°C° 0 mm 4 m/s 758 mmHg 64%
    07:00 +11°C° 0 mm 4 m/s 758 mmHg 59%
    08:00 +13°C° 0 mm 5 m/s 758 mmHg 54%
    09:00 +15°C° 0 mm 5 m/s 758 mmHg 50%
    10:00 +16°C° 0 mm 6 m/s 758 mmHg 45%
    11:00 +19°C° 0 mm 6 m/s 757 mmHg 40%
    12:00 +19°C° 0 mm 6 m/s 757 mmHg 39%
    13:00 +20°C° 0 mm 6 m/s 757 mmHg 38%
    14:00 +21°C° 0 mm 6 m/s 756 mmHg 36%
    15:00 +20°C° 0 mm 5 m/s 756 mmHg 38%
    16:00 +20°C° 0 mm 5 m/s 756 mmHg 39%
    17:00 +20°C° 0 mm 4 m/s 755 mmHg 40%
    18:00 +18°C° 0 mm 4 m/s 755 mmHg 46%
    19:00 +16°C° 0 mm 3 m/s 755 mmHg 51%
    20:00 +13°C° 0 mm 3 m/s 755 mmHg 57%
    21:00 +13°C° 0 mm 3 m/s 755 mmHg 59%
    22:00 +12°C° 0 mm 3 m/s 755 mmHg 62%
    23:00 +12°C° 0 mm 3 m/s 755 mmHg 64%
    Mostrar mais